Flag for U.S.A. Weather past 2 weeks in Seattle, Washington, U.S.A.

Now
60 °F

Clear.


Feels Like: 60 °F
Forecast: 59 / 76 °F
Wind: No wind

Location: Seattle Boeing Field

Current Time: Sep 20, 2014 at 7:37:47 AM

Latest Report: Sep 20, 2014 at 5:53 AM


Visibility: 10 mi

Pressure: 30.09 "Hg

Humidity: 80%

Dew point: 54 °F

Location of SeattleLocation

Historic Weather in Seattle — Graph

°F

Seattle temperature yesterday

Maximum temperature yesterday: 77 °F (at 2:53 PM)
Minimum temperature yesterday: 65 °F (at 5:53 AM)
Average temperature yesterday: 70 °F

Past Weeks' High & Low Weather Summary

 TemperatureHumidityPressure
High87 °F (Sep 6, 4:53 PM)87% (Sep 10, 5:53 AM)30.30 "Hg (Sep 10, 5:53 AM)
Low52 °F (Sep 14, 6:53 AM)17% (Sep 11, 4:53 PM)29.70 "Hg (Sep 17, 3:53 PM)
Average68 °F56%29.96 "Hg
* Reported Sep 5 5:53 AM — Sep 20 5:53 AM, Seattle, Weather by CustomWeather, © 2014

Note: Actual official high and low records may vary slightly from our data, if they occured in-between our weather recording intervals... More about our weather records

Advertising

Seattle weather history for previous 24 hours

 ConditionsComfort  
Time TempWeatherWind HumidityBarometerVisibility
5:53 AM
Sep 20
60 °FClear.No wind80%30.09 "Hg10 mi
4:53 AM61 °FClear.No wind75%30.09 "Hg10 mi
3:53 AM63 °FClear.No wind73%30.09 "Hg10 mi
2:53 AM64 °FClear.No wind73%30.10 "Hg10 mi
1:53 AM65 °FClear.No wind73%30.10 "Hg10 mi
12:53 AM66 °FClear.No wind70%30.10 "Hg10 mi
11:53 PM
Sep 19
67 °FClear.No wind68%30.10 "Hg10 mi
10:53 PM67 °FClear.No wind68%30.10 "Hg10 mi
9:53 PM68 °FPassing clouds.5 mph65%30.10 "Hg10 mi
8:53 PM69 °FPassing clouds.3 mph63%30.09 "Hg10 mi
7:53 PM71 °FOvercast.7 mph59%30.07 "Hg10 mi
6:53 PM74 °FPartly sunny.5 mph52%30.06 "Hg10 mi
5:53 PM76 °FPartly sunny.No wind50%30.06 "Hg10 mi
4:53 PM77 °FScattered clouds.6 mph48%30.06 "Hg10 mi
3:53 PM77 °FScattered clouds.5 mph47%30.06 "Hg10 mi
2:53 PM77 °FScattered clouds.8 mph42%30.08 "Hg10 mi
1:53 PM75 °FScattered clouds.10 mph47%30.09 "Hg10 mi
12:53 PM74 °FBroken clouds.9 mph52%30.10 "Hg10 mi
11:53 AM71 °FOvercast.10 mph57%30.10 "Hg10 mi
10:53 AM72 °FMore clouds than sun.12 mph57%30.09 "Hg10 mi
9:53 AM69 °FCloudy.7 mph63%30.09 "Hg10 mi
8:53 AM67 °FPartly sunny.10 mph71%30.07 "Hg10 mi
7:53 AM66 °FMostly cloudy.6 mph73%30.05 "Hg10 mi
Weather by CustomWeather, © 2014

See weather overviewHow to use our weather pages